Time,TemperatureF,DewpointF,PressureIn,WindDirection,WindDirectionDegrees,WindSpeedMPH,WindSpeedGustMPH,Humidity,HourlyPrecipIn,Conditions,Clouds,dailyrainin,SoftwareType,DateUTC
2013-10-31 00:00:00,34.0,30.0,29.92,WSW,240,0.0,1.0,85,0.00,,,0.00,Wunderground v.1.15,2013-10-31 04:00:00,
2013-10-31 00:05:00,33.3,29.6,29.92,WSW,241,0.0,1.0,86,0.00,,,0.00,Wunderground v.1.15,2013-10-31 04:05:00,
2013-10-31 00:10:00,32.9,29.5,29.93,WSW,241,0.0,0.0,87,0.00,,,0.00,Wunderground v.1.15,2013-10-31 04:10:00,
2013-10-31 00:15:00,32.8,29.6,29.93,WSW,241,0.0,0.0,88,0.00,,,0.00,Wunderground v.1.15,2013-10-31 04:15:00,
2013-10-31 00:20:00,32.7,29.8,29.93,WSW,241,0.0,0.0,89,0.00,,,0.00,Wunderground v.1.15,2013-10-31 04:20:00,
2013-10-31 00:30:00,32.8,29.9,29.93,WSW,241,0.0,0.0,89,0.00,,,0.00,Wunderground v.1.15,2013-10-31 04:30:00,
2013-10-31 00:35:00,32.6,29.7,29.93,WSW,241,0.0,0.0,89,0.00,,,0.00,Wunderground v.1.15,2013-10-31 04:35:00,
2013-10-31 00:40:00,32.5,29.6,29.93,WSW,241,0.0,1.0,89,0.00,,,0.00,Wunderground v.1.15,2013-10-31 04:40:00,
2013-10-31 00:50:00,32.2,29.3,29.92,WSW,241,1.0,3.0,89,0.00,,,0.00,Wunderground v.1.15,2013-10-31 04:50:00,
2013-10-31 00:55:00,32.1,29.5,29.93,WSW,241,2.0,3.0,90,0.00,,,0.00,Wunderground v.1.15,2013-10-31 04:55:00,
2013-10-31 01:00:00,32.0,29.7,29.93,WSW,241,3.0,3.0,91,0.00,,,0.00,Wunderground v.1.15,2013-10-31 05:00:00,
2013-10-31 01:05:00,32.3,30.0,29.93,SW,215,2.0,3.0,91,0.00,,,0.00,Wunderground v.1.15,2013-10-31 05:05:00,
2013-10-31 01:10:00,32.5,30.2,29.93,SW,215,1.0,1.0,91,0.00,,,0.00,Wunderground v.1.15,2013-10-31 05:10:00,
2013-10-31 01:20:00,32.3,29.7,29.92,SW,215,0.0,0.0,90,0.00,,,0.00,Wunderground v.1.15,2013-10-31 05:20:00,
2013-10-31 01:30:00,31.9,29.6,29.92,SW,215,0.0,0.0,91,0.00,,,0.00,Wunderground v.1.15,2013-10-31 05:30:00,
2013-10-31 01:40:00,31.7,29.4,29.91,SW,215,0.0,0.0,91,0.00,,,0.00,Wunderground v.1.15,2013-10-31 05:40:00,
2013-10-31 01:50:00,31.6,29.3,29.91,SW,215,0.0,0.0,91,0.00,,,0.00,Wunderground v.1.15,2013-10-31 05:50:00,
2013-10-31 02:00:00,30.8,28.5,29.91,SW,215,0.0,0.0,91,0.00,,,0.00,Wunderground v.1.15,2013-10-31 06:00:00,
2013-10-31 02:10:00,30.6,28.6,29.91,SW,215,0.0,0.0,92,0.00,,,0.00,Wunderground v.1.15,2013-10-31 06:10:00,
2013-10-31 02:20:00,30.5,28.5,29.91,SW,215,0.0,0.0,92,0.00,,,0.00,Wunderground v.1.15,2013-10-31 06:20:00,
2013-10-31 02:30:00,30.5,28.7,29.90,SW,215,0.0,0.0,93,0.00,,,0.00,Wunderground v.1.15,2013-10-31 06:30:00,
2013-10-31 02:35:00,30.5,28.7,29.90,SW,215,0.0,0.0,93,0.00,,,0.00,Wunderground v.1.15,2013-10-31 06:35:00,
2013-10-31 02:45:00,30.5,28.7,29.90,SW,215,0.0,0.0,93,0.00,,,0.00,Wunderground v.1.15,2013-10-31 06:45:00,
2013-10-31 02:50:00,30.5,28.7,29.90,SW,215,0.0,0.0,93,0.00,,,0.00,Wunderground v.1.15,2013-10-31 06:50:00,
2013-10-31 02:55:00,30.5,28.7,29.90,SW,215,0.0,0.0,93,0.00,,,0.00,Wunderground v.1.15,2013-10-31 06:55:00,
2013-10-31 03:00:00,30.5,28.7,29.90,SW,215,0.0,0.0,93,0.00,,,0.00,Wunderground v.1.15,2013-10-31 07:00:00,
2013-10-31 03:05:00,30.5,28.7,29.90,SW,215,0.0,0.0,93,0.00,,,0.00,Wunderground v.1.15,2013-10-31 07:05:00,
2013-10-31 03:10:00,30.4,28.6,29.89,SW,215,0.0,0.0,93,0.00,,,0.00,Wunderground v.1.15,2013-10-31 07:10:00,
2013-10-31 03:20:00,30.2,28.4,29.89,SW,215,0.0,0.0,93,0.00,,,0.00,Wunderground v.1.15,2013-10-31 07:20:00,
2013-10-31 03:25:00,30.5,29.0,29.89,SW,215,0.0,0.0,94,0.00,,,0.00,Wunderground v.1.15,2013-10-31 07:25:00,
2013-10-31 03:30:00,30.8,29.3,29.89,SW,215,0.0,0.0,94,0.00,,,0.00,Wunderground v.1.15,2013-10-31 07:30:00,
2013-10-31 03:35:00,31.0,29.5,29.89,SW,215,0.0,0.0,94,0.00,,,0.00,Wunderground v.1.15,2013-10-31 07:35:00,
2013-10-31 03:40:00,31.0,29.2,29.89,SW,215,0.0,0.0,93,0.00,,,0.00,Wunderground v.1.15,2013-10-31 07:40:00,
2013-10-31 03:50:00,31.1,29.3,29.89,SW,215,0.0,0.0,93,0.00,,,0.00,Wunderground v.1.15,2013-10-31 07:50:00,
2013-10-31 04:00:00,31.0,29.2,29.88,NW,317,1.0,2.0,93,0.00,,,0.00,Wunderground v.1.15,2013-10-31 08:00:00,
2013-10-31 04:10:00,30.9,29.1,29.88,NNW,339,1.0,1.0,93,0.00,,,0.00,Wunderground v.1.15,2013-10-31 08:10:00,
2013-10-31 04:20:00,31.1,29.3,29.88,NNW,339,0.0,0.0,93,0.00,,,0.00,Wunderground v.1.15,2013-10-31 08:20:00,
2013-10-31 04:30:00,31.5,29.7,29.88,NNW,339,0.0,0.0,93,0.00,,,0.00,Wunderground v.1.15,2013-10-31 08:30:00,
2013-10-31 04:40:00,31.7,29.6,29.88,NNW,339,0.0,0.0,92,0.00,,,0.00,Wunderground v.1.15,2013-10-31 08:40:00,
2013-10-31 04:50:00,31.5,29.4,29.89,NNW,339,0.0,0.0,92,0.00,,,0.00,Wunderground v.1.15,2013-10-31 08:50:00,
2013-10-31 05:00:00,31.2,28.9,29.88,NNW,339,0.0,0.0,91,0.00,,,0.00,Wunderground v.1.15,2013-10-31 09:00:00,
2013-10-31 05:10:00,30.9,28.9,29.88,NNW,339,0.0,0.0,92,0.00,,,0.00,Wunderground v.1.15,2013-10-31 09:10:00,
2013-10-31 05:20:00,30.6,28.8,29.88,West,265,0.0,1.0,93,0.00,,,0.00,Wunderground v.1.15,2013-10-31 09:20:00,
2013-10-31 05:30:00,30.5,28.7,29.88,West,262,0.0,0.0,93,0.00,,,0.00,Wunderground v.1.15,2013-10-31 09:30:00,
2013-10-31 05:35:00,30.4,28.6,29.88,WSW,253,0.0,2.0,93,0.00,,,0.00,Wunderground v.1.15,2013-10-31 09:35:00,
2013-10-31 05:40:00,30.5,28.7,29.88,WSW,253,0.0,0.0,93,0.00,,,0.00,Wunderground v.1.15,2013-10-31 09:40:00,
2013-10-31 05:50:00,30.4,28.6,29.87,WSW,253,0.0,0.0,93,0.00,,,0.00,Wunderground v.1.15,2013-10-31 09:50:00,
2013-10-31 06:00:00,30.4,28.9,29.87,WSW,253,0.0,0.0,94,0.00,,,0.00,Wunderground v.1.15,2013-10-31 10:00:00,
2013-10-31 06:10:00,30.2,28.4,29.87,West,268,0.0,0.0,93,0.00,,,0.00,Wunderground v.1.15,2013-10-31 10:10:00,
2013-10-31 06:20:00,30.1,28.6,29.87,West,268,0.0,0.0,94,0.00,,,0.00,Wunderground v.1.15,2013-10-31 10:20:00,
2013-10-31 06:30:00,30.2,28.7,29.87,West,268,0.0,0.0,94,0.00,,,0.00,Wunderground v.1.15,2013-10-31 10:30:00,
2013-10-31 06:40:00,30.1,28.6,29.86,West,268,1.0,1.0,94,0.00,,,0.00,Wunderground v.1.15,2013-10-31 10:40:00,
2013-10-31 06:50:00,30.3,28.8,29.86,West,268,0.0,0.0,94,0.00,,,0.00,Wunderground v.1.15,2013-10-31 10:50:00,
2013-10-31 06:55:00,30.4,28.9,29.86,West,268,0.0,0.0,94,0.00,,,0.00,Wunderground v.1.15,2013-10-31 10:55:00,
2013-10-31 07:00:00,30.4,28.9,29.86,West,268,0.0,0.0,94,0.00,,,0.00,Wunderground v.1.15,2013-10-31 11:00:00,
2013-10-31 07:10:00,30.4,28.9,29.85,West,268,0.0,0.0,94,0.00,,,0.00,Wunderground v.1.15,2013-10-31 11:10:00,
2013-10-31 07:20:00,30.4,28.9,29.85,West,268,0.0,0.0,94,0.00,,,0.00,Wunderground v.1.15,2013-10-31 11:20:00,
2013-10-31 07:30:00,30.7,29.2,29.85,West,268,0.0,0.0,94,0.00,,,0.00,Wunderground v.1.15,2013-10-31 11:30:00,
2013-10-31 07:40:00,30.8,29.3,29.85,West,268,0.0,0.0,94,0.00,,,0.00,Wunderground v.1.15,2013-10-31 11:40:00,
2013-10-31 07:45:00,30.8,29.3,29.84,West,268,0.0,0.0,94,0.00,,,0.00,Wunderground v.1.15,2013-10-31 11:45:00,
2013-10-31 07:50:00,30.9,29.4,29.84,West,268,0.0,0.0,94,0.00,,,0.00,Wunderground v.1.15,2013-10-31 11:50:00,
2013-10-31 08:00:00,31.2,29.7,29.85,West,268,0.0,0.0,94,0.00,,,0.00,Wunderground v.1.15,2013-10-31 12:00:00,
2013-10-31 08:10:00,31.3,29.8,29.85,West,268,0.0,0.0,94,0.00,,,0.00,Wunderground v.1.15,2013-10-31 12:10:00,
2013-10-31 08:20:00,31.4,29.9,29.85,West,268,0.0,0.0,94,0.00,,,0.00,Wunderground v.1.15,2013-10-31 12:20:00,
2013-10-31 08:25:00,31.5,30.0,29.85,West,268,0.0,0.0,94,0.00,,,0.00,Wunderground v.1.15,2013-10-31 12:25:00,
2013-10-31 08:30:00,31.7,30.2,29.85,West,268,0.0,0.0,94,0.00,,,0.00,Wunderground v.1.15,2013-10-31 12:30:00,
2013-10-31 08:40:00,32.0,30.5,29.85,West,268,0.0,0.0,94,0.00,,,0.00,Wunderground v.1.15,2013-10-31 12:40:00,
2013-10-31 08:50:00,32.2,30.7,29.85,West,268,0.0,0.0,94,0.00,,,0.00,Wunderground v.1.15,2013-10-31 12:50:00,
2013-10-31 08:55:00,32.3,30.8,29.85,West,268,0.0,0.0,94,0.00,,,0.00,Wunderground v.1.15,2013-10-31 12:55:00,
2013-10-31 09:05:00,32.8,31.3,29.84,West,268,0.0,0.0,94,0.00,,,0.00,Wunderground v.1.15,2013-10-31 13:05:00,
2013-10-31 09:10:00,33.0,31.5,29.84,West,268,0.0,0.0,94,0.00,,,0.00,Wunderground v.1.15,2013-10-31 13:10:00,
2013-10-31 09:15:00,33.4,31.9,29.84,West,268,0.0,0.0,94,0.00,,,0.00,Wunderground v.1.15,2013-10-31 13:15:00,
2013-10-31 09:25:00,34.3,32.8,29.84,North,5,1.0,2.0,94,0.00,,,0.00,Wunderground v.1.15,2013-10-31 13:25:00,
2013-10-31 09:35:00,35.3,33.5,29.83,North,360,0.0,1.0,93,0.00,,,0.00,Wunderground v.1.15,2013-10-31 13:35:00,
2013-10-31 09:40:00,35.6,33.8,29.83,North,360,0.0,0.0,93,0.00,,,0.00,Wunderground v.1.15,2013-10-31 13:40:00,
2013-10-31 09:50:00,36.2,33.8,29.82,North,360,0.0,0.0,91,0.00,,,0.00,Wunderground v.1.15,2013-10-31 13:50:00,
2013-10-31 10:00:00,36.7,34.3,29.82,North,360,0.0,0.0,91,0.00,,,0.00,Wunderground v.1.15,2013-10-31 14:00:00,
2013-10-31 10:05:00,37.1,34.7,29.82,North,360,0.0,1.0,91,0.00,,,0.00,Wunderground v.1.15,2013-10-31 14:05:00,
2013-10-31 10:15:00,37.9,35.5,29.81,North,360,0.0,0.0,91,0.00,,,0.00,Wunderground v.1.15,2013-10-31 14:15:00,
2013-10-31 10:20:00,38.0,35.3,29.81,SSW,209,0.0,0.0,90,0.00,,,0.00,Wunderground v.1.15,2013-10-31 14:20:00,
2013-10-31 10:30:00,38.6,35.9,29.80,SSE,152,0.0,0.0,90,0.00,,,0.00,Wunderground v.1.15,2013-10-31 14:30:00,
2013-10-31 10:40:00,39.3,36.0,29.80,South,179,1.0,3.0,88,0.00,,,0.00,Wunderground v.1.15,2013-10-31 14:40:00,
2013-10-31 10:50:00,39.6,36.6,29.80,South,175,1.0,1.0,89,0.00,,,0.00,Wunderground v.1.15,2013-10-31 14:50:00,
2013-10-31 11:00:00,40.4,37.4,29.80,SE,142,1.0,1.0,89,0.00,,,0.00,Wunderground v.1.15,2013-10-31 15:00:00,
2013-10-31 11:10:00,41.2,37.9,29.80,ESE,117,3.0,3.0,88,0.00,,,0.00,Wunderground v.1.15,2013-10-31 15:10:00,
2013-10-31 11:20:00,41.9,38.0,29.80,ESE,108,2.0,2.0,86,0.00,,,0.00,Wunderground v.1.15,2013-10-31 15:20:00,
2013-10-31 11:30:00,42.2,38.3,29.79,SE,143,1.0,3.0,86,0.00,,,0.00,Wunderground v.1.15,2013-10-31 15:30:00,
2013-10-31 11:40:00,42.4,38.5,29.78,SE,135,2.0,2.0,86,0.00,,,0.00,Wunderground v.1.15,2013-10-31 15:40:00,
2013-10-31 11:50:00,42.6,39.0,29.78,SSE,165,2.0,7.0,87,0.00,,,0.00,Wunderground v.1.15,2013-10-31 15:50:00,
2013-10-31 12:00:00,42.7,39.1,29.77,South,176,4.0,4.0,87,0.00,,,0.00,Wunderground v.1.15,2013-10-31 16:00:00,
2013-10-31 12:10:00,42.6,39.6,29.76,SSE,162,4.0,4.0,89,0.00,,,0.00,Wunderground v.1.15,2013-10-31 16:10:00,
2013-10-31 12:15:00,42.6,39.9,29.76,SSE,157,4.0,4.0,90,0.00,,,0.00,Wunderground v.1.15,2013-10-31 16:15:00,
2013-10-31 12:20:00,42.6,40.2,29.75,SSE,159,3.0,3.0,91,0.00,,,0.00,Wunderground v.1.15,2013-10-31 16:20:00,
2013-10-31 12:30:00,42.5,40.3,29.75,South,183,3.0,3.0,92,0.00,,,0.01,Wunderground v.1.15,2013-10-31 16:30:00,
2013-10-31 12:40:00,42.5,40.6,29.74,South,178,2.0,2.0,93,0.04,,,0.02,Wunderground v.1.15,2013-10-31 16:40:00,
2013-10-31 12:50:00,42.5,40.6,29.73,South,177,2.0,4.0,93,0.06,,,0.03,Wunderground v.1.15,2013-10-31 16:50:00,
2013-10-31 12:55:00,42.5,40.9,29.72,South,176,2.0,4.0,94,0.06,,,0.03,Wunderground v.1.15,2013-10-31 16:55:00,
2013-10-31 13:00:00,42.6,41.0,29.72,ESE,117,2.0,3.0,94,0.05,,,0.03,Wunderground v.1.15,2013-10-31 17:00:00,
2013-10-31 13:10:00,42.7,41.4,29.71,SSE,147,2.0,2.0,95,0.04,,,0.04,Wunderground v.1.15,2013-10-31 17:10:00,
2013-10-31 13:20:00,42.8,41.5,29.70,South,184,3.0,3.0,95,0.04,,,0.04,Wunderground v.1.15,2013-10-31 17:20:00,
2013-10-31 13:30:00,43.0,41.7,29.69,South,190,3.0,6.0,95,0.00,,,0.04,Wunderground v.1.15,2013-10-31 17:30:00,
2013-10-31 13:40:00,43.1,41.8,29.67,ESE,120,3.0,3.0,95,0.00,,,0.04,Wunderground v.1.15,2013-10-31 17:40:00,
2013-10-31 13:50:00,43.4,42.1,29.66,SSE,161,5.0,5.0,95,0.00,,,0.04,Wunderground v.1.15,2013-10-31 17:50:00,
2013-10-31 14:00:00,43.5,42.2,29.66,South,183,7.0,7.0,95,0.00,,,0.05,Wunderground v.1.15,2013-10-31 18:00:00,
2013-10-31 14:10:00,43.3,42.0,29.66,South,190,5.0,5.0,95,0.07,,,0.06,Wunderground v.1.15,2013-10-31 18:10:00,
2013-10-31 14:20:00,43.3,42.0,29.65,SSW,204,6.0,6.0,95,0.06,,,0.07,Wunderground v.1.15,2013-10-31 18:20:00,
2013-10-31 14:30:00,43.4,42.1,29.65,SSW,199,6.0,7.0,95,0.04,,,0.08,Wunderground v.1.15,2013-10-31 18:30:00,
2013-10-31 14:40:00,43.6,42.5,29.64,South,169,4.0,5.0,96,0.04,,,0.08,Wunderground v.1.15,2013-10-31 18:40:00,
2013-10-31 14:50:00,44.0,42.9,29.64,SSW,192,5.0,10.0,96,0.06,,,0.09,Wunderground v.1.15,2013-10-31 18:50:00,
2013-10-31 15:00:00,44.4,43.3,29.63,South,177,7.0,10.0,96,0.04,,,0.10,Wunderground v.1.15,2013-10-31 19:00:00,
2013-10-31 15:10:00,44.6,43.5,29.63,SSW,195,8.0,11.0,96,0.08,,,0.11,Wunderground v.1.15,2013-10-31 19:10:00,
2013-10-31 15:20:00,44.9,43.8,29.62,SW,229,8.0,8.0,96,0.04,,,0.12,Wunderground v.1.15,2013-10-31 19:20:00,
2013-10-31 15:30:00,45.4,44.3,29.62,SW,225,7.0,7.0,96,0.04,,,0.12,Wunderground v.1.15,2013-10-31 19:30:00,
2013-10-31 15:40:00,45.8,44.7,29.62,SE,146,6.0,8.0,96,0.00,,,0.13,Wunderground v.1.15,2013-10-31 19:40:00,
2013-10-31 15:50:00,46.1,45.0,29.62,SSW,195,6.0,6.0,96,0.00,,,0.13,Wunderground v.1.15,2013-10-31 19:50:00,
2013-10-31 16:00:00,46.3,45.2,29.61,SSW,197,5.0,6.0,96,0.09,,,0.15,Wunderground v.1.15,2013-10-31 20:00:00,
2013-10-31 16:10:00,46.5,45.4,29.61,South,185,5.0,5.0,96,0.06,,,0.15,Wunderground v.1.15,2013-10-31 20:10:00,
2013-10-31 16:20:00,46.7,45.6,29.60,South,190,6.0,6.0,96,0.04,,,0.16,Wunderground v.1.15,2013-10-31 20:20:00,
2013-10-31 16:30:00,46.8,45.7,29.61,SSW,201,6.0,6.0,96,0.07,,,0.17,Wunderground v.1.15,2013-10-31 20:30:00,
2013-10-31 16:40:00,47.0,45.9,29.60,SSW,202,5.0,5.0,96,0.04,,,0.18,Wunderground v.1.15,2013-10-31 20:40:00,
2013-10-31 16:50:00,47.3,46.2,29.59,South,181,6.0,6.0,96,0.05,,,0.19,Wunderground v.1.15,2013-10-31 20:50:00,
2013-10-31 17:00:00,47.5,46.4,29.59,South,187,6.0,7.0,96,0.04,,,0.19,Wunderground v.1.15,2013-10-31 21:00:00,
2013-10-31 17:05:00,47.6,46.5,29.59,SSW,206,6.0,7.0,96,0.00,,,0.19,Wunderground v.1.15,2013-10-31 21:05:00,
2013-10-31 17:15:00,47.9,46.8,29.59,SW,233,7.0,7.0,96,0.00,,,0.20,Wunderground v.1.15,2013-10-31 21:15:00,
2013-10-31 17:20:00,48.0,46.9,29.58,South,182,6.0,6.0,96,0.00,,,0.20,Wunderground v.1.15,2013-10-31 21:20:00,
2013-10-31 17:30:00,48.1,47.0,29.58,South,189,5.0,5.0,96,0.00,,,0.20,Wunderground v.1.15,2013-10-31 21:30:00,
2013-10-31 17:40:00,48.5,47.4,29.57,SSW,201,6.0,12.0,96,0.00,,,0.20,Wunderground v.1.15,2013-10-31 21:40:00,
2013-10-31 17:50:00,48.7,47.6,29.57,SSW,212,7.0,7.0,96,0.00,,,0.20,Wunderground v.1.15,2013-10-31 21:50:00,
2013-10-31 18:00:00,48.8,47.7,29.57,SSE,168,5.0,5.0,96,0.00,,,0.20,Wunderground v.1.15,2013-10-31 22:00:00,
2013-10-31 18:10:00,49.0,47.9,29.57,SSW,203,6.0,6.0,96,0.00,,,0.20,Wunderground v.1.15,2013-10-31 22:10:00,
2013-10-31 18:20:00,49.1,48.0,29.56,South,189,6.0,10.0,96,0.00,,,0.21,Wunderground v.1.15,2013-10-31 22:20:00,
2013-10-31 18:30:00,49.2,48.1,29.56,South,171,6.0,6.0,96,0.00,,,0.21,Wunderground v.1.15,2013-10-31 22:30:00,
2013-10-31 18:40:00,49.4,48.3,29.55,South,176,5.0,8.0,96,0.00,,,0.21,Wunderground v.1.15,2013-10-31 22:40:00,
2013-10-31 18:50:00,49.8,48.7,29.55,SSW,209,6.0,6.0,96,0.00,,,0.22,Wunderground v.1.15,2013-10-31 22:50:00,
2013-10-31 18:55:00,49.9,49.1,29.55,South,189,5.0,6.0,97,0.04,,,0.22,Wunderground v.1.15,2013-10-31 22:55:00,
2013-10-31 19:00:00,50.0,48.9,29.55,South,184,5.0,8.0,96,0.04,,,0.23,Wunderground v.1.15,2013-10-31 23:00:00,
2013-10-31 19:05:00,50.1,49.0,29.55,WSW,241,6.0,10.0,96,0.04,,,0.23,Wunderground v.1.15,2013-10-31 23:05:00,
2013-10-31 19:15:00,50.2,49.1,29.55,SW,227,6.0,7.0,96,0.00,,,0.23,Wunderground v.1.15,2013-10-31 23:15:00,
2013-10-31 19:20:00,50.4,49.3,29.54,SSW,194,6.0,6.0,96,0.00,,,0.24,Wunderground v.1.15,2013-10-31 23:20:00,
2013-10-31 19:30:00,50.4,49.3,29.55,WSW,240,5.0,5.0,96,0.00,,,0.24,Wunderground v.1.15,2013-10-31 23:30:00,
2013-10-31 19:40:00,50.4,49.3,29.54,SSW,193,6.0,6.0,96,0.09,,,0.26,Wunderground v.1.15,2013-10-31 23:40:00,
2013-10-31 19:45:00,50.4,49.3,29.54,South,183,6.0,6.0,96,0.08,,,0.26,Wunderground v.1.15,2013-10-31 23:45:00,
2013-10-31 19:50:00,50.4,49.3,29.53,SSW,202,5.0,9.0,96,0.06,,,0.27,Wunderground v.1.15,2013-10-31 23:50:00,
2013-10-31 20:05:00,50.4,49.3,29.52,SSW,199,7.0,8.0,96,0.00,,,0.27,Wunderground v.1.15,2013-11-01 00:05:00,
2013-10-31 20:10:00,50.5,49.4,29.51,SSE,168,7.0,7.0,96,0.00,,,0.27,Wunderground v.1.15,2013-11-01 00:10:00,
2013-10-31 20:20:00,50.5,49.4,29.50,SW,222,6.0,6.0,96,0.00,,,0.27,Wunderground v.1.15,2013-11-01 00:20:00,
2013-10-31 20:30:00,50.7,49.9,29.49,SSW,206,6.0,6.0,97,0.00,,,0.27,Wunderground v.1.15,2013-11-01 00:30:00,
2013-10-31 20:35:00,50.9,49.8,29.50,South,175,7.0,7.0,96,0.00,,,0.27,Wunderground v.1.15,2013-11-01 00:35:00,
2013-10-31 20:45:00,51.0,49.9,29.49,South,169,6.0,8.0,96,0.00,,,0.27,Wunderground v.1.15,2013-11-01 00:45:00,
2013-10-31 20:55:00,51.1,50.0,29.48,South,173,7.0,7.0,96,0.00,,,0.27,Wunderground v.1.15,2013-11-01 00:55:00,
2013-10-31 21:00:00,51.2,50.4,29.48,South,190,7.0,9.0,97,0.00,,,0.27,Wunderground v.1.15,2013-11-01 01:00:00,
2013-10-31 21:05:00,51.3,50.5,29.48,SSW,210,8.0,9.0,97,0.00,,,0.27,Wunderground v.1.15,2013-11-01 01:05:00,
2013-10-31 21:10:00,51.4,50.6,29.48,South,180,8.0,8.0,97,0.00,,,0.27,Wunderground v.1.15,2013-11-01 01:10:00,
2013-10-31 21:20:00,51.3,50.5,29.47,South,188,5.0,5.0,97,0.00,,,0.27,Wunderground v.1.15,2013-11-01 01:20:00,
2013-10-31 21:30:00,51.4,50.6,29.47,South,179,5.0,5.0,97,0.00,,,0.27,Wunderground v.1.15,2013-11-01 01:30:00,
2013-10-31 21:40:00,51.5,50.7,29.46,SW,223,5.0,5.0,97,0.00,,,0.27,Wunderground v.1.15,2013-11-01 01:40:00,
2013-10-31 21:50:00,51.7,50.9,29.46,SW,236,5.0,5.0,97,0.00,,,0.28,Wunderground v.1.15,2013-11-01 01:50:00,
2013-10-31 21:55:00,51.7,50.9,29.46,SSW,213,5.0,7.0,97,0.00,,,0.28,Wunderground v.1.15,2013-11-01 01:55:00,
2013-10-31 22:00:00,51.8,51.0,29.46,SSW,196,5.0,5.0,97,0.00,,,0.28,Wunderground v.1.15,2013-11-01 02:00:00,
2013-10-31 22:05:00,51.9,51.1,29.46,South,182,5.0,5.0,97,0.00,,,0.28,Wunderground v.1.15,2013-11-01 02:05:00,
2013-10-31 22:10:00,51.8,51.0,29.45,South,184,5.0,8.0,97,0.00,,,0.28,Wunderground v.1.15,2013-11-01 02:10:00,
2013-10-31 22:15:00,52.0,51.2,29.45,South,189,5.0,9.0,97,0.00,,,0.28,Wunderground v.1.15,2013-11-01 02:15:00,
2013-10-31 22:20:00,52.0,51.2,29.45,SSE,165,6.0,9.0,97,0.00,,,0.28,Wunderground v.1.15,2013-11-01 02:20:00,
2013-10-31 22:30:00,52.2,51.4,29.44,South,170,7.0,8.0,97,0.00,,,0.29,Wunderground v.1.15,2013-11-01 02:30:00,
2013-10-31 22:40:00,52.3,51.5,29.43,South,175,7.0,7.0,97,0.00,,,0.29,Wunderground v.1.15,2013-11-01 02:40:00,
2013-10-31 22:50:00,52.4,51.6,29.42,SSW,201,7.0,10.0,97,0.00,,,0.29,Wunderground v.1.15,2013-11-01 02:50:00,
2013-10-31 23:00:00,52.6,51.8,29.42,SSW,205,7.0,7.0,97,0.00,,,0.29,Wunderground v.1.15,2013-11-01 03:00:00,
2013-10-31 23:10:00,52.6,51.8,29.42,SSW,205,6.0,7.0,97,0.00,,,0.30,Wunderground v.1.15,2013-11-01 03:10:00,
2013-10-31 23:20:00,52.8,52.0,29.41,SSW,200,6.0,7.0,97,0.00,,,0.30,Wunderground v.1.15,2013-11-01 03:20:00,
2013-10-31 23:30:00,52.9,52.1,29.40,South,182,7.0,7.0,97,0.04,,,0.31,Wunderground v.1.15,2013-11-01 03:30:00,
2013-10-31 23:40:00,53.1,52.3,29.40,South,186,7.0,7.0,97,0.05,,,0.32,Wunderground v.1.15,2013-11-01 03:40:00,
2013-10-31 23:50:00,53.1,52.3,29.39,South,186,6.0,7.0,97,0.04,,,0.33,Wunderground v.1.15,2013-11-01 03:50:00,